Home > Weather > Rendsburg > Past weeks

Flag for Germany Weather for the Past 2 Weeks in Rendsburg, Schleswig-Holstein, Germany

Now
36 °F

Chilly.


Feels Like: 26 °F
Forecast: 28 / 34 °F
Wind: 15 mph from Northeast

Location: Hohn

Current Time: Feb 14, 2016 at 1:51:14 AM

Latest Report: Feb 14, 2016 at 12:20 AM


Visibility: 3 mi

Pressure: 29.30 "Hg

Humidity: 93%

Dew point: 34 °F

Location of RendsburgLocation

Historic Weather in Rendsburg — Graph

°F

Rendsburg Temperature Yesterday

Maximum temperature yesterday: 36 °F (at 12:20 AM)
Minimum temperature yesterday: 30 °F (at 6:20 AM)
Average temperature yesterday: 34 °F

High & Low Weather Summary for the Past Weeks

 TemperatureHumidityPressure
High52 °F (Feb 7, 12:20 PM)100% (Feb 1, 12:20 AM)30.15 "Hg (Feb 1, 12:20 AM)
Low30 °F (Feb 13, 6:20 AM)65% (Jan 30, 9:20 PM)28.85 "Hg (Feb 9, 9:20 PM)
Average41 °F86%29.54 "Hg
* Reported Jan 30 12:20 AM — Feb 14 12:20 AM, Rendsburg, Weather by CustomWeather, © 2016

Note: Actual official high and low records may vary slightly from our data, if they occured in-between our weather recording intervals... More about our weather records

Advertising

Rendsburg Weather History for the Previous 24 Hours

 ConditionsComfort  
Time TempWeatherWind HumidityBarometerVisibility
12:20 AM
Sun, Feb 14
36 °FChilly.15 mph93%29.30 "Hg3 mi
11:20 PM
Sat, Feb 13
36 °FChilly.15 mph93%29.30 "Hg3 mi
10:20 PM36 °FChilly.14 mph93%29.33 "Hg3 mi
9:20 PM36 °FChilly.14 mph93%29.33 "Hg4 mi
8:20 PM36 °FChilly.15 mph93%29.33 "Hg4 mi
7:20 PM34 °FChilly.8 mph93%29.33 "Hg4 mi
6:20 PM36 °FChilly.15 mph87%29.36 "Hg4 mi
5:20 PM36 °FChilly.14 mph87%29.36 "Hg4 mi
4:20 PM34 °FChilly.14 mph93%29.39 "Hg4 mi
3:20 PM36 °FChilly.7 mph93%29.39 "Hg3 mi
2:20 PM36 °FChilly.9 mph87%29.39 "Hg3 mi
1:20 PM36 °FChilly.8 mph87%29.42 "Hg3 mi
12:20 PM34 °FChilly.8 mph100%29.42 "Hg2 mi
11:20 AM32 °FChilly.9 mph100%29.45 "Hg2 mi
10:20 AM32 °FChilly.3 mph93%29.45 "Hg0 mi
9:20 AM32 °FChilly.5 mph93%29.47 "Hg1 mi
8:20 AM30 °FChilly.3 mph93%29.47 "Hg1 mi
7:20 AM30 °FChilly.1 mph93%29.47 "Hg1 mi
6:20 AM30 °FChilly.3 mph93%29.47 "Hg1 mi
5:20 AM32 °FChilly.2 mph100%29.47 "Hg1 mi
4:20 AM32 °FChilly.2 mph93%29.47 "Hg1 mi
3:20 AM34 °FChilly.2 mph93%29.50 "Hg1 mi
2:20 AM34 °FChilly.2 mph100%29.50 "Hg2 mi
1:20 AM34 °FChilly.No wind100%29.50 "Hg2 mi
Weather by CustomWeather, © 2016

See weather overviewHow to use our weather pages